| time (UTC) | temp C | wind direction | speed KPH | gust KPH | rain 1hr cm | rain 24hr cm | rain mn cm | humidity % | barometer mb |
| 20260505121543 | 11 | 298 | 0.0 | 4.8 | 0.00 | 0.00 | 0.00 | 84 | 1015.2 |
| 20260505120048 | 11 | 295 | 3.2 | 6.4 | 0.00 | 0.00 | 0.00 | 84 | 1015.1 |
| 20260505114542 | 11 | 282 | 3.2 | 4.8 | 0.00 | 0.00 | 0.00 | 84 | 1015.2 |
| 20260505113042 | 11 | 278 | 1.6 | 9.7 | 0.00 | 0.00 | 0.00 | 84 | 1015.2 |
| 20260505111542 | 11 | 283 | 6.4 | 12.9 | 0.00 | 0.00 | 0.00 | 84 | 1015.1 |
| 20260505101544 | 11 | 277 | 8.0 | 17.7 | 0.00 | 0.00 | 0.00 | 84 | 1014.6 |
| 20260505100043 | 11 | 272 | 8.0 | 19.3 | 0.00 | 0.00 | 0.00 | 84 | 1014.6 |
| 20260505094540 | 11 | 273 | 8.0 | 17.7 | 0.00 | 0.00 | 0.00 | 84 | 1014.5 |
| 20260505093037 | 11 | 276 | 4.8 | 12.9 | 0.00 | 0.00 | 0.00 | 84 | 1014.6 |
| 20260505091539 | 11 | 266 | 8.0 | 17.7 | 0.00 | 0.00 | 0.00 | 84 | 1014.5 |
| 20260505090538 | 11 | 284 | 8.0 | 17.7 | 0.00 | 0.00 | 0.00 | 84 | 1014.5 |
| 20260505084548 | 11 | 271 | 6.4 | 17.7 | 0.00 | 0.00 | 0.00 | 84 | 1014.4 |
| 20260505083041 | 11 | 278 | 8.0 | 17.7 | 0.00 | 0.00 | 0.00 | 85 | 1014.2 |
| 20260505081544 | 11 | 293 | 4.8 | 14.5 | 0.00 | 0.00 | 0.00 | 85 | 1014.2 |
| 20260505080052 | 11 | 268 | 4.8 | 11.3 | 0.00 | 0.00 | 0.00 | 85 | 1014.2 |
| 20260505074544 | 11 | 251 | 6.4 | 17.7 | 0.00 | 0.00 | 0.00 | 85 | 1014.2 |
| 20260505073046 | 11 | 266 | 11.3 | 22.5 | 0.00 | 0.00 | 0.00 | 85 | 1013.8 |
| 20260505071546 | 11 | 265 | 9.7 | 20.9 | 0.00 | 0.00 | 0.00 | 85 | 1013.8 |
| 20260505070052 | 11 | 267 | 9.7 | 17.7 | 0.00 | 0.00 | 0.00 | 86 | 1013.7 |
| 20260505064544 | 11 | 276 | 12.9 | 20.9 | 0.00 | 0.00 | 0.00 | 86 | 1013.7 |
| 20260505063039 | 11 | 271 | 8.0 | 14.5 | 0.00 | 0.00 | 0.00 | 86 | 1013.8 |
| 20260505061541 | 11 | 276 | 8.0 | 19.3 | 0.00 | 0.00 | 0.00 | 86 | 1013.7 |
| 20260505060044 | 11 | 285 | 11.3 | 24.1 | 0.00 | 0.00 | 0.00 | 86 | 1013.7 |
| 20260505054542 | 11 | 276 | 9.7 | 22.5 | 0.00 | 0.00 | 0.00 | 86 | 1013.6 |
| 20260505053055 | 11 | 279 | 9.7 | 19.3 | 0.00 | 0.00 | 0.00 | 86 | 1013.7 |
| 20260505051542 | 11 | 276 | 11.3 | 25.7 | 0.00 | 0.00 | 0.00 | 86 | 1013.8 |
| 20260505041554 | 11 | 285 | 14.5 | 30.6 | 0.00 | 0.00 | 0.00 | 84 | 1013.4 |
| 20260505040053 | 12 | 219 | 11.3 | 20.9 | 0.00 | 0.00 | 0.00 | 82 | 1013.3 |
| 20260505034538 | 12 | 278 | 11.3 | 24.1 | 0.00 | 0.00 | 0.00 | 81 | 1013.1 |
| 20260505033039 | 12 | 317 | 14.5 | 25.7 | 0.00 | 0.00 | 0.00 | 80 | 1012.6 |
| 20260505031543 | 12 | 290 | 16.1 | 30.6 | 0.00 | 0.00 | 0.00 | 80 | 1012.5 |
| 20260505030037 | 13 | 281 | 16.1 | 35.4 | 0.00 | 0.00 | 0.00 | 78 | 1012.3 |
| 20260505024554 | 13 | 278 | 17.7 | 30.6 | 0.00 | 0.00 | 0.00 | 76 | 1012.4 |
| 20260505023044 | 13 | 297 | 16.1 | 35.4 | 0.00 | 0.00 | 0.00 | 75 | 1012.1 |
| 20260505021541 | 14 | 340 | 16.1 | 30.6 | 0.00 | 0.00 | 0.00 | 74 | 1012.2 |
| 20260505020038 | 15 | 275 | 14.5 | 29.0 | 0.00 | 0.00 | 0.00 | 73 | 1012.1 |
| 20260505014600 | 15 | 285 | 19.3 | 33.8 | 0.00 | 0.00 | 0.00 | 72 | 1012.1 |
| 20260505013046 | 15 | 281 | 12.9 | 30.6 | 0.00 | 0.00 | 0.00 | 71 | 1012.1 |
| 20260505011554 | 16 | 266 | 14.5 | 29.0 | 0.00 | 0.00 | 0.00 | 69 | 1012.1 |
| 20260505010043 | 16 | 269 | 14.5 | 30.6 | 0.00 | 0.00 | 0.00 | 69 | 1011.9 |
| 20260505004541 | 16 | 275 | 17.7 | 32.2 | 0.00 | 0.00 | 0.00 | 69 | 1012.0 |
| 20260505003040 | 17 | 262 | 17.7 | 32.2 | 0.00 | 0.00 | 0.00 | 67 | 1012.3 |
| 20260505001538 | 17 | 281 | 19.3 | 32.2 | 0.00 | 0.00 | 0.00 | 66 | 1012.2 |
| 20260505000048 | 17 | 268 | 16.1 | 29.0 | 0.00 | 0.00 | 0.00 | 66 | 1012.2 |
| 20260504234549 | 18 | 279 | 14.5 | 35.4 | 0.00 | 0.00 | 0.00 | 64 | 1012.3 |
| 20260504233101 | 18 | 291 | 16.1 | 20.9 | 0.00 | 0.00 | 0.00 | 63 | 1012.2 |
| 20260504231544 | 18 | 275 | 12.9 | 25.7 | 0.00 | 0.00 | 0.00 | 64 | 1012.3 |
| 20260504230041 | 19 | 283 | 11.3 | 27.4 | 0.00 | 0.00 | 0.00 | 62 | 1012.3 |
| 20260504224540 | 18 | 284 | 12.9 | 22.5 | 0.00 | 0.00 | 0.00 | 64 | 1012.3 |
| 20260504223054 | 18 | 316 | 14.5 | 29.0 | 0.00 | 0.00 | 0.00 | 64 | 1012.5 |
| 20260504221543 | 18 | 271 | 12.9 | 25.7 | 0.00 | 0.00 | 0.00 | 65 | 1012.5 |
| 20260504220043 | 18 | 272 | 14.5 | 20.9 | 0.00 | 0.00 | 0.00 | 64 | 1012.7 |
| 20260504214537 | 19 | 323 | 12.9 | 27.4 | 0.00 | 0.00 | 0.00 | 64 | 1012.5 |
| 20260504213050 | 19 | 269 | 8.0 | 19.3 | 0.00 | 0.00 | 0.00 | 64 | 1012.8 |
| 20260504211545 | 18 | 265 | 8.0 | 16.1 | 0.00 | 0.00 | 0.00 | 66 | 1012.9 |
| 20260504210040 | 18 | 293 | 12.9 | 25.7 | 0.00 | 0.00 | 0.00 | 65 | 1013.0 |
| 20260504204547 | 18 | 271 | 11.3 | 25.7 | 0.00 | 0.00 | 0.00 | 65 | 1013.1 |
| 20260504203058 | 19 | 309 | 11.3 | 20.9 | 0.00 | 0.00 | 0.00 | 65 | 1013.2 |
| 20260504201542 | 19 | 262 | 8.0 | 16.1 | 0.00 | 0.00 | 0.00 | 64 | 1013.2 |
| 20260504200038 | 19 | 302 | 6.4 | 11.3 | 0.00 | 0.00 | 0.00 | 64 | 1013.3 |
| 20260504194537 | 19 | 283 | 6.4 | 12.9 | 0.00 | 0.00 | 0.00 | 63 | 1013.2 |
| 20260504193044 | 18 | 278 | 4.8 | 17.7 | 0.00 | 0.00 | 0.00 | 64 | 1013.2 |
| 20260504191549 | 18 | 236 | 4.8 | 12.9 | 0.00 | 0.00 | 0.00 | 64 | 1013.2 |
| 20260504190047 | 18 | 288 | 4.8 | 14.5 | 0.00 | 0.00 | 0.00 | 66 | 1013.4 |
| 20260504184543 | 17 | 267 | 3.2 | 9.7 | 0.00 | 0.00 | 0.00 | 67 | 1013.7 |
| 20260504183040 | 17 | 283 | 4.8 | 9.7 | 0.00 | 0.00 | 0.00 | 68 | 1013.8 |
| 20260504181544 | 16 | 283 | 3.2 | 12.9 | 0.00 | 0.00 | 0.00 | 71 | 1013.7 |
| 20260504180037 | 16 | 259 | 4.8 | 8.0 | 0.00 | 0.00 | 0.00 | 71 | 1013.6 |
| 20260504174545 | 15 | 312 | 6.4 | 14.5 | 0.00 | 0.00 | 0.00 | 73 | 1013.8 |
| 20260504173038 | 15 | 301 | 4.8 | 9.7 | 0.00 | 0.00 | 0.00 | 75 | 1013.9 |
| 20260504171547 | 14 | 278 | 8.0 | 12.9 | 0.00 | 0.00 | 0.00 | 76 | 1013.9 |